Regional Weather Roundup
Issued by NWS

Home | Current Version | Previous Version | Graphics & Text | Print | Product List | Glossary On
Versions: 1 2 3 4 5 6 7 8 9 10 11 12 13 14 15 16 17 18 19 20 21 22 23 24 25 26 27 28 29 30 31 32 33 34 35 36 37 38 39 40 41 42 43 44 45 46 47 48 49 50
000
ASUS43 KDTX 122310
RWRMI
MICHIGAN HOURLY REGIONAL WEATHER ROUNDUP
NATIONAL WEATHER SERVICE DETROIT/PONTIAC MI
600 PM EST TUE DEC 12 2017

NOTE: "FAIR" INDICATES FEW OR NO CLOUDS BELOW 12,000 FEET WITH NO
SIGNIFICANT WEATHER AND/OR OBSTRUCTION TO VISIBILITY.

MIZ047>049-052>055-059>063-066>070-074>076-081>083-130000-
SOUTHEAST LOWER MICHIGAN

CITY           SKY/WX    TMP DP  RH WIND       PRES   REMARKS
ADRIAN         MOCLDY    17   2  51 NW9       29.91R WCI   6
ALMA           FLURRIES  17  10  71 NW9       29.90S WCI   6
ANN ARBOR      CLOUDY    16   9  74 W12       29.88R WCI   3
BAD AXE        CLOUDY    14   1  56 NW14G21   29.83R WCI  -1
CARO           PTCLDY    15   3  58 NW17      29.86R WCI  -2
DETROIT CITY   FLURRIES  16   6  65 NW9       29.87S WCI   4
DETROIT        MOCLDY    19   4  51 NW13      29.89R WCI   6
FLINT          PTCLDY    14   2  58 NW10      29.88R WCI   1
GROSSE ILE     CLOUDY    19   5  55 NW10      29.88R WCI   7
HILLSDALE      CLEAR     16   3  57 NW12      29.87R WCI   3
HOWELL         CLOUDY    15   9  74 W9        29.87R WCI   4

CITY           SKY/WX    TMP DP  RH WIND       PRES   REMARKS
JACKSON        PTCLDY    17   2  51 W9        29.89R WCI   6
LAMBERTVILLE   PTCLDY    17   6  61 NW5       29.90S WCI  10
LANSING        FLURRIES  17  11  77 NW13      29.91R WCI   4
LAPEER         MOCLDY    14   1  56 NW8       29.85R WCI   3
MASON          CLOUDY    18   7  62 NW15      29.89S WCI   4
MONROE         FLURRIES  17   7  64 NW8       29.89R WCI   7
MT. CLEMENS    PTCLDY    15   1  53 NW13      29.84R WCI   2
PONTIAC        PTCLDY    14   3  61 NW12      29.84R WCI   0
PORT HOPE        N/A     17   7  64 NW25G33   29.81R WCI  -1
PORT HURON     PTCLDY    14   0  52 NW12G17   29.84R WCI   0
TRI CITIES     CLOUDY    15   5  64 NW15      29.90R WCI   0
MIDLAND        CLOUDY    16   5  61 NW8       29.89S WCI   5
TROY           PTCLDY    19   4  53 NW10      29.88R WCI   7
SAGINAW HB     CLEAR     14   5  67 NW13G20   29.88R WCI   0
$$
MIZ043>046-050>051-056>058-064>065-071>073-077>080-130000-
SOUTHWEST LOWER MICHIGAN

CITY           SKY/WX    TMP DP  RH WIND       PRES   REMARKS
BATTLE CREEK   CLOUDY    18   7  62 NW13      29.92R WCI   5
BENTON HARBOR  FLURRIES  23  11  60 W17G25    29.98S WCI   9
BIG RAPIDS     FLURRIES  16  10  78 NW9       29.88S WCI   4
COLDWATER      CLOUDY    19   9  67 NW10G16   29.92R WCI   7
FREMONT        FLURRIES  17  13  85 NW9       29.93S WCI   5
HOLLAND        LGT SNOW  19  14  81 N6        29.96R WCI  11
GRAND RAPIDS   CLOUDY    17  13  84 NW10      29.93S WCI   5
IONIA          MOCLDY    17   4  56 NW14      29.90S WCI   3
KALAMAZOO      LGT SNOW  18  12  77 NW12      29.94S WCI   5
LUDINGTON      CLOUDY    19   6  57 NW13G20   29.94S WCI   6
MARSHALL       CLOUDY    17   3  54 NW7       29.91R WCI   7
MOUNT PLEASANT CLOUDY    18   5  57 W8        29.88S WCI   7
MUSKEGON       LGT SNOW  20  10  65 N10       29.96S WCI   9
SOUTH HAVEN    LGT SNOW  24  13  63 NW13G21   29.96S WCI  12
$$
MIZ016>042-130000-
NORTHERN LOWER MICHIGAN

CITY           SKY/WX    TMP DP  RH WIND       PRES   REMARKS
ALPENA         PTCLDY    10   2  69 NW10      29.85R WCI  -4
BEAVER ISLAND  CLOUDY    15   6  67 N13G24    29.92S WCI   1
BELLAIRE       CLOUDY    15   7  69 N8        29.91S WCI   5
CADILLAC       LGT SNOW  13  10  85 W7        29.84S WCI   3
CHARLEVOIX     CLOUDY    16   5  61 NW15G21   29.94R WCI   1
FRANKFORT      FLURRIES  20   9  62 NW17G23   29.93S WCI   5
GAYLORD        CLOUDY     9   3  77 N6        29.83R WCI  -1
GRAYLING       LGT SNOW  11   5  75 N13       29.85S WCI  -4
HARBOR SPRINGS CLOUDY    12   3  65 N3        29.90S
HOUGHTON LAKE  CLOUDY    12   1  61 NW14      29.85R WCI  -3
MANISTEE       FLURRIES  19   8  62 NW15G21   29.93S WCI   5
OSCODA         CLEAR     10  -3  55 NW15G21   29.84R WCI  -7
PELLSTON       CLOUDY    12   2  64 NW14      29.91R WCI  -3
ROGERS CITY    CLOUDY    12   3  67 NW14G24   29.87R WCI  -3
TRAVERSE CITY  LGT SNOW  18  13  80 NW13      29.90S VSB 1   WCI   5
$$
MIZ007>008-015-130000-
EASTERN UPPER MICHIGAN

CITY           SKY/WX    TMP DP  RH WIND       PRES   REMARKS
KINROSS        FLURRIES   3  -2  79 N7        29.88R WCI  -9
MACKINAC ISLAN CLOUDY    11   2  67 NW12G21   29.89R WCI  -3
NEWBERRY       CLOUDY     9   6  87 NW3       29.90R
S. S. MARIE    CLEAR      5  -4  66 N7        29.90R WCI  -7
MUNISING         N/A     19  16  88 N15       29.91F WCI   5
$$
MIZ004>006-011>014-085-130000-
CENTRAL UPPER MICHIGAN

CITY           SKY/WX    TMP DP  RH WIND       PRES   REMARKS
MANISTIQUE     CLOUDY    12   5  71 CALM      29.93R
ESCANABA       CLEAR      9   0  67 W5        29.96S WCI   1
MENOMINEE      MOCLDY    10   1  67 CALM      29.98S
SAWYER-GWINN   CLOUDY    10   3  72 NW5       29.90S WCI   2
$$
MIZ001>003-009>011-084-130000-
WESTERN UPPER MICHIGAN

CITY           SKY/WX    TMP DP  RH WIND       PRES   REMARKS
IRON MOUNTAIN  CLOUDY    13   3  64 NW10      29.90S WCI   0
HOUGHTON       CLOUDY    11   3  70 NW5       29.89F WCI   3
COPPER HARBOR    N/A     15   7  70 N12       29.93F WCI   2
IRONWOOD       CLOUDY     9   2  73 CALM      29.91F
$$

ABBREVIATIONS USED IN REMARKS
   TC - TEMPERATURE IN CELSIUS
  WCI - WIND CHILL INDEX
   HX - HEAT INDEX
  VSB - VISIBILITY





USA.gov is the U.S. government's official web portal to all federal, state and local government web resources and services.